COSMOS 1275 DEB

Satellite information

Favourite Embed

Satellite Type and Status

DEBRISIN ORBIT

Key statistics

Satellite COSMOS 1275 DEB at a glance.

Uptime

16103

Days in orbit

Revolutions

≈ 14.3

Per day

Orbit

LEO

Low Earth Orbit

Inclination

83.1

Latest

Satellite identification and parameters

Extended collection of information and parameters for COSMOS 1275 DEB.

Object identification

Identified? True

Debris? True

Object name: COSMOS 1275 DEB

International designator: 1981-053BK

Object number (NORAD): 12715

Object ID (CCSDS): 12715

Country: COMMONWEALTH OF INDEPENDENT STATES (CIS)

Current information (Y/N): Y

RCS size: MEDIUM

Orbital parameters

Period: 100.528 minutes

Inclination: 83.1074 deg

SMA: 7161.739 km

Apoapsis: 827.168 km

Periapsis: 740.04 km

RAAN: 13.7078 deg

Eccentricy: 0.0060829

Argument of periapsis: 216.1092 deg

Mean anomaly: 208.4568 deg

Mean motion: 14.32435288 rev/day

Mean motion (dot): 0.00001706 rev/day2

B* drag term: 0.00061168 1/REarth

Two-line elements (TLE)

Creation date: July 5, 2025, 5:45 p.m.

Reference frame: TEME

Reference center: EARTH

Epoch: July 5, 2025, 2:12 p.m. UTC

TLE line 0: 0 COSMOS 1275 DEB

TLE line 1: 1 12715U 81053BK 25186.59207443 .00001706 00000-0 61168-3 0 9998

TLE line 2: 2 12715 83.1074 13.7078 0060829 216.1092 208.4568 14.32435288265818

Live tracking on map

Real-time ground track for satellite COSMOS 1275 DEB.

In-orbit conjunctions

A list of the most updated potential collisions computed for object COSMOS 1275 DEB.

Target Orbit TCA Probability of collision Miss distance Type
CZ-6A DEB LEO 2025-03-05 21:06:57 0.0008065409 82.0 (m) DEBRIS
SL-24 R/B SSO 2025-03-03 20:29:00 0.0002072382 78.0 (m) ROCKET BODY
CZ-6A DEB SSO 2024-12-16 00:09:03 0.0001492914 163.0 (m) DEBRIS
NOAA 16 DEB SSO 2024-11-12 14:24:20 0.0001083088 670.0 (m) DEBRIS

Associated space launch

Navigation satellite providing location information for the Tsiklon-B navigation system

COSMOS 1275 DEB was lifted into orbit during the mission ‘Kosmos-3M | Parus 27’, on board a Kosmos-3M space rocket.

The launch took place on June 4, 1981, 3:41 p.m. from 132/2.

For more information about the launch, click the button.

Launch to space Kosmos-3M | Parus 27
Kosmos-3M | Parus 27

Agency: N/A

Status: Launch Successful

Launch date: June 4, 1981, 3:41 p.m. UTC

Rocket: Kosmos-3M

Launch pad: 132/2

Location: Plesetsk Cosmodrome, Russian Federation

...

Latest news about this satellite

There are no fresh news available about this satellite. Check back as we update our databases every day.


Newsletter sign-up

Weekly statistics, charts and insights to help you stay on top of the space industry.